Location: Bidart
(43.4376°N, 1.5913°W)
Time: 21:57:14
(UTC+00:00)

Lacrosse 5 rocket - Pass Details

Date: 19 May 2025
Orbit: 419 x 515 km, 57.0° (Epoch: 18 June)

Event Time Altitude Azimuth Distance (km) Brightness Sun altitude
Rises 21:20:27 0° 314° (NW) 2,481 6.4 -16.5°
Reaches altitude 10° 21:22:38 10° 317° (NW) 1,586 5.0 -16.7°
Maximum altitude 21:26:10 68° 41° (NE) 477 1.0 -17.1°
Enters shadow 21:27:06 43° 108° (ESE) 623 1.2 -17.2°
